Regional Weather Roundup
Issued by NWS New Orleans/Baton Rouge, LA

Home | Current Version | Previous Version | Graphics & Text | Print | Product List | Glossary On
Versions: 1 2 3 4 5 6 7 8 9 10 11 12 13 14 15 16 17 18 19 20 21 22 23 24 25 26 27 28 29 30 31 32 33 34 35 36 37 38 39 40 41 42 43 44 45 46 47 48 49 50
148
ASUS44 KLIX 041101
RWRLIX
NEW ORLEANS REGIONAL WEATHER ROUNDUP
NATIONAL WEATHER SERVICE NEW ORLEANS LA
500 AM CST WED MAR 04 2015

NOTE: "FAIR" INDICATES FEW OR NO CLOUDS BELOW 12,000 FEET WITH NO
      SIGNIFICANT WEATHER AND/OR OBSTRUCTIONS TO VISIBILITY.
      SKY/WX - SKY CONDITION AND SIGNIFICANT WEATHER.
      TMP - AIR TEMPERATURE.     DP    - DEWPOINT TEMPERATURE.
      RH  - RELATIVE HUMIDITY.   PRES  - PRESSURE.
      HI  - HEAT INDEX.          WCI   - WIND CHILL INDEX.

*  THESE STATIONS ARE NOT NWS OR FAA STATIONS AND ARE NOT UNDER
   NWS QUALITY CONTROL.

LAZ038-040-048-061>063-065>067-069-041200-
SOUTHEAST LOUISIANA

CITY           SKY/WX    TMP DP  RH WIND       PRES   REMARKS
N.O. AUDUBON   NOT AVBL
N.O. INTL ARPT PTCLDY    67  64  90 SE5       29.97R
N.O. LAKEFRONT CLOUDY    66  62  87 SE5       29.98R FOG
SLIDELL        CLOUDY    67  67 100 SE3       29.98R
BATON ROUGE    CLOUDY    68  67  96 S6        29.95S FOG
BOOTHVILLE     CLEAR     65  65 100 SE5       29.98S FOG
BELLE CHASSE   CLOUDY    66  63  90 CALM      29.97S FOG
BOGALUSA*        N/A     69  65  88 CALM      30.00R
GALLIANO*      LGT RAIN  65  64  97 MISG      29.97S
NEW ROADS*     CLOUDY    66  66  98 SE3       29.95R FOG
GONZALES*      NOT AVBL
HAMMOND*       NOT AVBL
HOUMA*         FOG       64  64 100 CALM      29.97R VSB 1/4
PORT FOURCHON* MOSUNNY   70  66  88 S6        30.00R

$$

MSZ070-080>082-041200-
SOUTHERN MISSISSIPPI

CITY           SKY/WX    TMP DP  RH WIND       PRES   REMARKS
MCCOMB         CLOUDY    67  67 100 SW3       29.97S FOG
GULFPORT       FOG       64  63  96 SE8       29.99S VSB 1/2
BILOXI         MOCLDY    66  66 100 S9        29.99R
PASCAGOULA     CLOUDY    66  65  96 SE7       30.00S

$$

COASTAL OBSERVATIONS
LAKE AND NEARSHORE STATIONS

STATION/POSITION TIME  TEMP    WIND        PRES    WAVE
                       AIR SEA DIR/SP/G            HT/PER
                 (UTC) (F)     (DEG/KT/KT) (MB)    (FT/S)
PASCAGOULA       1019   65     140/  6/ 10 1015.4
WAVELAND YACHT   1019   63 60  160/  7/  9 1015.0
GRAND ISLE       1019   67 64  140/  4/  7 1015.2
SOUTHWEST PASS   1019   64 45  160/  7/  9 1015.4
NEW CANAL        1019   67      CALM  /  2 1015.1
SHELL BEACH      1019   65 62  140/  6/  8 1014.8

OFFSHORE STATIONS

STATION/POSITION TIME  TEMP    WIND        PRES    WAVE
                       AIR SEA DIR/SP/G            HT/PER
                 (UTC) (F)     (DEG/KT/KT) (MB)    (FT/S)
64 S DAUPHIN ISL 1004   71 71  140/ 14/ 16 1016.3    4/ 6

$$




USA.gov is the U.S. government's official web portal to all federal, state and local government web resources and services.